When you browse on this site, cookies collect data to enhance your experience and personalize the content and advertising you see.
Visit our Privacy Policy to learn more. By continuing to use the site, you agree to this use of cookies and data.

Hourly Weather Graz

Today, 13 August, Thursday

Time Temperature Precipitation Wind Pressure Humidity
00:00 +18°C° 0 mm 0 mps 726 mmHg 83%
01:00 +20°C° 0 mm 1 mps 725 mmHg 84%
02:00 +20°C° 0 mm 1 mps 725 mmHg 85%
03:00 +20°C° 0 mm 1 mps 725 mmHg 86%
04:00 +19°C° 0 mm 1 mps 725 mmHg 87%
05:00 +21°C° 0 mm 1 mps 725 mmHg 85%
06:00 +20°C° 0 mm 0 mps 725 mmHg 83%
07:00 +21°C° 0 mm 0 mps 725 mmHg 81%
08:00 +25°C° 0 mm 1 mps 725 mmHg 74%
09:00 +27°C° 0 mm 1 mps 725 mmHg 67%
10:00 +29°C° 0 mm 1 mps 725 mmHg 60%
11:00 +29°C° 0.2 mm 1 mps 725 mmHg 58%
12:00 +30°C° 0.2 mm 1 mps 725 mmHg 56%
13:00 +30°C° 0.2 mm 2 mps 724 mmHg 55%
14:00 +29°C° 1.4 mm 1 mps 724 mmHg 64%
15:00 +28°C° 1.4 mm 1 mps 723 mmHg 73%
16:00 +26°C° 1.4 mm 1 mps 723 mmHg 83%
17:00 +25°C° 2.2 mm 1 mps 723 mmHg 86%
18:00 +24°C° 2.2 mm 1 mps 723 mmHg 89%
19:00 +22°C° 2.2 mm 1 mps 723 mmHg 92%
20:00 +22°C° 0.3 mm 1 mps 723 mmHg 92%
21:00 +21°C° 0.3 mm 1 mps 723 mmHg 92%
22:00 +21°C° 0.3 mm 1 mps 723 mmHg 92%
23:00 +20°C° 0 mm 1 mps 723 mmHg 92%

Tomorrow, 14 August, Friday

Time Temperature Precipitation Wind Pressure Humidity
00:00 +20°C° 0 mm 1 mps 723 mmHg 91%
01:00 +20°C° 0 mm 1 mps 723 mmHg 90%
02:00 +20°C° 0 mm 1 mps 723 mmHg 90%
03:00 +19°C° 0 mm 1 mps 723 mmHg 90%
04:00 +19°C° 0 mm 1 mps 722 mmHg 90%
05:00 +20°C° 0 mm 1 mps 723 mmHg 88%
06:00 +21°C° 0 mm 1 mps 723 mmHg 86%
07:00 +22°C° 0 mm 1 mps 723 mmHg 85%
08:00 +21°C° 0 mm 0 mps 723 mmHg 79%
09:00 +22°C° 0 mm 0 mps 723 mmHg 74%
10:00 +24°C° 0 mm 0 mps 723 mmHg 69%
11:00 +24°C° 0.4 mm 0 mps 723 mmHg 69%
12:00 +26°C° 0.4 mm 1 mps 723 mmHg 68%
13:00 +27°C° 0.4 mm 1 mps 723 mmHg 68%
14:00 +26°C° 1.4 mm 1 mps 723 mmHg 73%
15:00 +26°C° 1.4 mm 1 mps 723 mmHg 78%
16:00 +25°C° 1.4 mm 1 mps 722 mmHg 82%
17:00 +24°C° 1 mm 1 mps 722 mmHg 85%
18:00 +23°C° 1 mm 1 mps 722 mmHg 87%
19:00 +22°C° 1 mm 1 mps 722 mmHg 90%
20:00 +21°C° 0.1 mm 1 mps 722 mmHg 90%
21:00 +21°C° 0.1 mm 1 mps 723 mmHg 90%
22:00 +20°C° 0.1 mm 1 mps 723 mmHg 91%
23:00 +20°C° 0.2 mm 1 mps 723 mmHg 90%

Day after tomorrow, 15 August, Saturday

Time Temperature Precipitation Wind Pressure Humidity
00:00 +20°C° 0.2 mm 1 mps 723 mmHg 90%
01:00 +20°C° 0.2 mm 1 mps 723 mmHg 90%
02:00 +20°C° 0.1 mm 1 mps 723 mmHg 90%
03:00 +20°C° 0.1 mm 1 mps 723 mmHg 91%
04:00 +20°C° 0.1 mm 1 mps 723 mmHg 91%
05:00 +20°C° 0.1 mm 1 mps 723 mmHg 91%
06:00 +20°C° 0.1 mm 1 mps 723 mmHg 90%
07:00 +20°C° 0.1 mm 1 mps 723 mmHg 90%
08:00 +22°C° 0.2 mm 1 mps 723 mmHg 87%
09:00 +23°C° 0.2 mm 1 mps 724 mmHg 83%
10:00 +22°C° 0.2 mm 0 mps 724 mmHg 79%
11:00 +24°C° 0.5 mm 0 mps 724 mmHg 73%
12:00 +25°C° 0.5 mm 0 mps 723 mmHg 66%
13:00 +27°C° 0.5 mm 0 mps 723 mmHg 60%
14:00 +28°C° 0.7 mm 1 mps 723 mmHg 63%
15:00 +28°C° 0.7 mm 1 mps 723 mmHg 65%
16:00 +27°C° 0.7 mm 1 mps 722 mmHg 68%
17:00 +26°C° 0.2 mm 1 mps 722 mmHg 72%
18:00 +24°C° 0.2 mm 1 mps 722 mmHg 77%
19:00 +23°C° 0.2 mm 1 mps 722 mmHg 81%
20:00 +22°C° 0 mm 1 mps 722 mmHg 83%
21:00 +21°C° 0 mm 1 mps 722 mmHg 85%
22:00 +20°C° 0 mm 1 mps 722 mmHg 86%
23:00 +20°C° 0 mm 1 mps 722 mmHg 87%

16 August, Sunday

Time Temperature Precipitation Wind Pressure Humidity
00:00 +20°C° 0 mm 1 mps 722 mmHg 87%
01:00 +19°C° 0 mm 1 mps 722 mmHg 87%
02:00 +19°C° 0 mm 1 mps 722 mmHg 88%
03:00 +19°C° 0 mm 1 mps 722 mmHg 88%
04:00 +18°C° 0 mm 1 mps 722 mmHg 88%
05:00 +19°C° 0 mm 1 mps 722 mmHg 85%
06:00 +20°C° 0 mm 1 mps 722 mmHg 83%
07:00 +21°C° 0 mm 1 mps 722 mmHg 80%
08:00 +24°C° 0 mm 1 mps 723 mmHg 71%
09:00 +26°C° 0 mm 1 mps 723 mmHg 61%
10:00 +29°C° 0 mm 1 mps 723 mmHg 52%
11:00 +30°C° 0 mm 1 mps 723 mmHg 50%
12:00 +30°C° 0 mm 1 mps 723 mmHg 48%
13:00 +31°C° 0 mm 2 mps 723 mmHg 45%
14:00 +30°C° 0.2 mm 2 mps 722 mmHg 49%
15:00 +30°C° 0.2 mm 2 mps 722 mmHg 53%
16:00 +29°C° 0.2 mm 2 mps 722 mmHg 57%
17:00 +28°C° 0.3 mm 1 mps 722 mmHg 65%
18:00 +26°C° 0.3 mm 1 mps 722 mmHg 73%
19:00 +22°C° 0.3 mm 0 mps 722 mmHg 80%
20:00 +21°C° 0.4 mm 0 mps 722 mmHg 82%
21:00 +21°C° 0.4 mm 0 mps 722 mmHg 84%
22:00 +20°C° 0.4 mm 0 mps 722 mmHg 86%
23:00 +22°C° 0.1 mm 1 mps 722 mmHg 87%

17 August, Monday

Time Temperature Precipitation Wind Pressure Humidity
00:00 +21°C° 0.1 mm 1 mps 722 mmHg 88%
01:00 +21°C° 0.1 mm 1 mps 721 mmHg 89%
02:00 +20°C° 0 mm 1 mps 721 mmHg 89%
03:00 +20°C° 0 mm 1 mps 721 mmHg 90%
04:00 +20°C° 0 mm 1 mps 721 mmHg 90%
05:00 +21°C° 0 mm 1 mps 721 mmHg 88%
06:00 +21°C° 0 mm 1 mps 721 mmHg 86%
07:00 +22°C° 0 mm 1 mps 721 mmHg 84%
08:00 +25°C° 0 mm 1 mps 721 mmHg 74%
09:00 +27°C° 0 mm 1 mps 721 mmHg 65%
10:00 +29°C° 0 mm 1 mps 722 mmHg 55%
11:00 +30°C° 0.1 mm 1 mps 721 mmHg 53%
12:00 +30°C° 0.1 mm 1 mps 721 mmHg 50%
13:00 +31°C° 0.1 mm 2 mps 721 mmHg 47%
14:00 +31°C° 0.3 mm 2 mps 720 mmHg 49%
15:00 +30°C° 0.3 mm 1 mps 720 mmHg 51%
16:00 +30°C° 0.3 mm 1 mps 720 mmHg 53%
17:00 +28°C° 0.5 mm 1 mps 720 mmHg 61%
18:00 +26°C° 0.5 mm 1 mps 719 mmHg 69%
19:00 +24°C° 0.5 mm 1 mps 719 mmHg 77%
20:00 +23°C° 0.4 mm 1 mps 719 mmHg 79%
21:00 +22°C° 0.4 mm 1 mps 719 mmHg 82%
22:00 +21°C° 0.4 mm 1 mps 719 mmHg 84%
23:00 +21°C° 0.1 mm 1 mps 719 mmHg 85%

18 August, Tuesday

Time Temperature Precipitation Wind Pressure Humidity
00:00 +21°C° 0.1 mm 1 mps 719 mmHg 86%
01:00 +20°C° 0.1 mm 1 mps 719 mmHg 87%
02:00 +20°C° 0.7 mm 1 mps 719 mmHg 89%
03:00 +19°C° 0.7 mm 1 mps 719 mmHg 90%
04:00 +19°C° 0.7 mm 1 mps 719 mmHg 92%
05:00 +20°C° 0.8 mm 1 mps 719 mmHg 92%
06:00 +20°C° 0.8 mm 1 mps 719 mmHg 91%
07:00 +20°C° 0.8 mm 1 mps 720 mmHg 91%
08:00 +21°C° 0.5 mm 1 mps 720 mmHg 88%
09:00 +21°C° 0.5 mm 2 mps 720 mmHg 85%
10:00 +21°C° 0.5 mm 2 mps 720 mmHg 83%
11:00 +21°C° 0.5 mm 2 mps 720 mmHg 81%
12:00 +21°C° 0.5 mm 2 mps 720 mmHg 79%
13:00 +21°C° 0.5 mm 2 mps 720 mmHg 77%
14:00 +21°C° 0.7 mm 1 mps 720 mmHg 81%
15:00 +21°C° 0.7 mm 1 mps 720 mmHg 84%
16:00 +20°C° 0.7 mm 1 mps 720 mmHg 88%
17:00 +19°C° 0.2 mm 1 mps 720 mmHg 89%
18:00 +19°C° 0.2 mm 1 mps 720 mmHg 89%
19:00 +18°C° 0.2 mm 1 mps 720 mmHg 90%
20:00 +18°C° 0 mm 1 mps 720 mmHg 90%
21:00 +16°C° 0 mm 1 mps 721 mmHg 90%
22:00 +16°C° 0 mm 1 mps 721 mmHg 90%
23:00 +15°C° 0 mm 1 mps 721 mmHg 90%
Show more